Location: Haliburton Scout Reserve
(45.0900°N, 78.3200°W)
Time: 08:37:01
(UTC-04:00)

S-56A Canister/Altair - Pass Details

Date: 29 January 2023
Orbit: 639 x 2493 km, 38.9° (Epoch: 27 March)

Event Time Altitude Azimuth Distance (km) Brightness Sun altitude
Rises 11:17:05 0° 199° (SSW) 2,989 11.4 25.1°
Reaches altitude 10° 11:20:15 10° 174° (S) 2,211 11.6 25.3°
Maximum altitude 11:23:00 15° 141° (SE) 2,064 11.2 25.4°
Drops below altitude 10° 11:26:08 10° 108° (ESE) 2,597 10.8 25.6°
Sets 11:30:25 0° 87° (E) 3,901 11.3 25.8°
